CONNECTA IOT-4 (60524 NORAD) Tracking and Keplerian Element Data

This shows tracking and keplerian element data for the satellite.

Feedback or suggestion? Click here.




ElementValue
Catalog60524
NameCONNECTA IOT-4
Epoch Orbit864
Epoch Day286.73444365
Epoch Year2024
RAAN1.4689
Inclination97.4362
Eccentricity0.0006968
Argument of Perigee316.4774
Mean Anonmoly43.591
Mean Motion15.20079534
Decay Rate0.00011762
L11 60524U 24149BJ 24286.73444365 .00011762 00000+0 54722-3 0 9994
L22 60524 97.4362 1.4689 0006968 316.4774 43.5910 15.20079534 8645



Live tracking and technical data element details for CONNECTA IOT-4 (NORAD 60524). CONNECTA IOT-4 can be tracked NOW for your location showing map with azimuth and elevation plus other details from your city location.







IsCatalogInMostPopularTable: catalog: 60524, numindb: 5
Update: records affected: 1



GetName: 60524 CONNECTA IOT-4

Hit Count: updated at: Wed, 04 Dec 2024 19:19:35 GMT